sat.trackr.live / text

‹ back to catalog

GNOMES-3

NORAD 52158 · 2022-033B

PAYLOAD ACTIVE UNKNOWN

§ Identity

Operator
Country
US
Launch date
2022-04-01
Launch site
AFETR
Launch vehicle
Mass (kg)
RCS (m²)

External: N2YO · Heavens-Above · Gunter

§ Orbital elements

Epoch: 2026-05-25T04:39:35.108640Z

Period
96.97 min
Inclination
97.8233°
Eccentricity
0.0011778
Mean motion
14.84985927 rev/d
Perigee alt
605.4 km
Apogee alt
621.9 km
Semi-major
6,991.8 km
B*
2.0956e-4
RAAN
221.9148°
Arg perigee
45.6020°
Mean anomaly
314.6157°
Rev number
22,392

§ Raw data

GNOMES-31 52158U 22033B   26145.19415635  .00001735  00000+0  20956-3 0  99932 52158  97.8233 221.9148 0011778  45.6020 314.6157 14.84985927223925

JSON: /api/v1/satellites/52158 · /tle

For live sub-satellite position, see the globe view (requires WebGL).

§ Visibility from observer

Set your observer location to see the next 7 days of passes ≥ 10°. The values pass through the URL so the page stays shareable.

No JS? Fill the form by hand. The geolocation button needs JavaScript.

§ Radio — SatNOGS DB

ModeDescriptionDownlinkUplink
BPSK S-band telemetry 2.282 GHz

1 transmitter · refreshed weekly from db.satnogs.org